Year,Month,Day,Hour,Minute,Value (Times are PST for temperature in C)
2016,11,19,00,00,8.80
2016,11,19,00,01,8.80
2016,11,19,00,02,8.80
2016,11,19,00,03,8.80
2016,11,19,00,04,8.80
2016,11,19,00,05,8.80
2016,11,19,00,06,8.80
2016,11,19,00,07,8.80
2016,11,19,00,08,8.80
2016,11,19,00,09,8.80
2016,11,19,00,10,8.80
2016,11,19,00,11,8.80
2016,11,19,00,12,8.80
2016,11,19,00,13,8.80
2016,11,19,00,14,8.80
2016,11,19,00,15,8.80
2016,11,19,00,16,8.80
2016,11,19,00,17,8.80
2016,11,19,00,18,8.80
2016,11,19,00,19,8.80
2016,11,19,00,20,8.80
2016,11,19,00,21,8.80
2016,11,19,00,22,8.80
2016,11,19,00,23,8.80
2016,11,19,00,24,8.80
2016,11,19,00,25,8.80
2016,11,19,00,26,8.80
2016,11,19,00,27,8.80
2016,11,19,00,28,8.80
2016,11,19,00,29,8.80
2016,11,19,00,30,8.80
2016,11,19,00,31,8.80
2016,11,19,00,32,8.80
2016,11,19,00,33,8.80
2016,11,19,00,34,8.80
2016,11,19,00,35,8.80
2016,11,19,00,36,8.80
2016,11,19,00,37,8.80
2016,11,19,00,38,8.90
2016,11,19,00,39,8.90
2016,11,19,00,40,8.90
2016,11,19,00,41,8.90
2016,11,19,00,42,8.90
2016,11,19,00,43,8.90
2016,11,19,00,44,8.90
2016,11,19,00,45,8.90
2016,11,19,00,46,8.90
2016,11,19,00,47,8.90
2016,11,19,00,48,8.90
2016,11,19,00,49,8.90
2016,11,19,00,50,8.90
2016,11,19,00,51,8.90
2016,11,19,00,52,8.90
2016,11,19,00,53,8.90
2016,11,19,00,54,8.90
2016,11,19,00,55,8.90
2016,11,19,00,56,8.90
2016,11,19,00,57,8.90
2016,11,19,00,58,8.90
2016,11,19,00,59,8.90
2016,11,19,01,00,9.00
2016,11,19,01,01,9.00
2016,11,19,01,02,8.90
2016,11,19,01,03,9.00
2016,11,19,01,04,9.00
2016,11,19,01,05,9.00
2016,11,19,01,06,9.00
2016,11,19,01,07,9.10
2016,11,19,01,08,9.10
2016,11,19,01,09,9.10
2016,11,19,01,10,9.00
2016,11,19,01,11,9.10
2016,11,19,01,12,9.10
2016,11,19,01,13,9.10
2016,11,19,01,14,9.00
2016,11,19,01,15,9.00
2016,11,19,01,16,9.00
2016,11,19,01,17,9.00
2016,11,19,01,18,9.00
2016,11,19,01,19,9.00
2016,11,19,01,20,9.00
2016,11,19,01,21,9.00
2016,11,19,01,22,9.00
2016,11,19,01,23,9.00
2016,11,19,01,24,9.00
2016,11,19,01,25,9.00
2016,11,19,01,26,9.00
2016,11,19,01,27,8.90
2016,11,19,01,28,9.00
2016,11,19,01,29,9.00
2016,11,19,01,30,8.90
2016,11,19,01,31,8.90
2016,11,19,01,32,8.90
2016,11,19,01,33,8.90
2016,11,19,01,34,8.90
2016,11,19,01,35,9.00
2016,11,19,01,36,9.00
2016,11,19,01,37,9.00
2016,11,19,01,38,9.00
2016,11,19,01,39,9.00
2016,11,19,01,40,9.00
2016,11,19,01,41,9.00
2016,11,19,01,42,8.90
2016,11,19,01,43,8.90
2016,11,19,01,44,8.90
2016,11,19,01,45,8.90
2016,11,19,01,46,9.00
2016,11,19,01,47,9.00
2016,11,19,01,48,9.00
2016,11,19,01,49,9.00
2016,11,19,01,50,9.00
2016,11,19,01,51,8.90
2016,11,19,01,52,8.90
2016,11,19,01,53,8.80
2016,11,19,01,54,8.70
2016,11,19,01,55,8.70
2016,11,19,01,56,8.60
2016,11,19,01,57,8.60
2016,11,19,01,58,8.50
2016,11,19,01,59,8.40
2016,11,19,02,00,8.30
2016,11,19,02,01,8.30
2016,11,19,02,02,8.30
2016,11,19,02,03,8.40
2016,11,19,02,04,8.40
2016,11,19,02,05,8.40
2016,11,19,02,06,8.40
2016,11,19,02,07,8.50
2016,11,19,02,08,8.50
2016,11,19,02,09,8.50
2016,11,19,02,10,8.60
2016,11,19,02,11,8.60
2016,11,19,02,12,8.60
2016,11,19,02,13,8.60
2016,11,19,02,14,8.60
2016,11,19,02,15,8.60
2016,11,19,02,16,8.60
2016,11,19,02,17,8.60
2016,11,19,02,18,8.50
2016,11,19,02,19,8.50
2016,11,19,02,20,8.40
2016,11,19,02,21,8.40
2016,11,19,02,22,8.40
2016,11,19,02,23,8.40
2016,11,19,02,24,8.40
2016,11,19,02,25,8.40
2016,11,19,02,26,8.40
2016,11,19,02,27,8.40
2016,11,19,02,28,8.50
2016,11,19,02,29,8.50
2016,11,19,02,30,8.60
2016,11,19,02,31,8.60
2016,11,19,02,32,8.60
2016,11,19,02,33,8.70
2016,11,19,02,34,8.70
2016,11,19,02,35,8.80
2016,11,19,02,36,8.90
2016,11,19,02,37,9.00
2016,11,19,02,38,9.00
2016,11,19,02,39,9.10
2016,11,19,02,40,9.20
2016,11,19,02,41,9.20
2016,11,19,02,42,9.30
2016,11,19,02,43,9.30
2016,11,19,02,44,9.30
2016,11,19,02,45,9.40
2016,11,19,02,46,9.40
2016,11,19,02,47,9.40
2016,11,19,02,48,9.40
2016,11,19,02,49,9.50
2016,11,19,02,50,9.60
2016,11,19,02,51,9.60
2016,11,19,02,52,9.60
2016,11,19,02,53,9.60
2016,11,19,02,54,9.60
2016,11,19,02,55,9.60
2016,11,19,02,56,9.60
2016,11,19,02,57,9.60
2016,11,19,02,58,9.60
2016,11,19,02,59,9.60
2016,11,19,03,00,9.50
2016,11,19,03,01,9.50
2016,11,19,03,02,9.40
2016,11,19,03,03,9.40
2016,11,19,03,04,9.40
2016,11,19,03,05,9.30
2016,11,19,03,06,9.30
2016,11,19,03,07,9.30
2016,11,19,03,08,9.20
2016,11,19,03,09,9.20
2016,11,19,03,10,9.20
2016,11,19,03,11,9.10
2016,11,19,03,12,9.00
2016,11,19,03,13,8.90
2016,11,19,03,14,8.80
2016,11,19,03,15,8.70
2016,11,19,03,16,8.60
2016,11,19,03,17,8.50
2016,11,19,03,18,8.50
2016,11,19,03,19,8.50
2016,11,19,03,20,8.50
2016,11,19,03,21,8.40
2016,11,19,03,22,8.40
2016,11,19,03,23,8.40
2016,11,19,03,24,8.40
2016,11,19,03,25,8.40
2016,11,19,03,26,8.40
2016,11,19,03,27,8.40
2016,11,19,03,28,8.30
2016,11,19,03,29,8.30
2016,11,19,03,30,8.30
2016,11,19,03,31,8.30
2016,11,19,03,32,8.30
2016,11,19,03,33,8.40
2016,11,19,03,34,8.40
2016,11,19,03,35,8.40
2016,11,19,03,36,8.40
2016,11,19,03,37,8.50
2016,11,19,03,38,8.50
2016,11,19,03,39,8.60
2016,11,19,03,40,8.60
2016,11,19,03,41,8.70
2016,11,19,03,42,8.70
2016,11,19,03,43,8.70
2016,11,19,03,44,8.80
2016,11,19,03,45,8.80
2016,11,19,03,46,8.80
2016,11,19,03,47,8.80
2016,11,19,03,48,8.80
2016,11,19,03,49,8.80
2016,11,19,03,50,8.80
2016,11,19,03,51,8.80
2016,11,19,03,52,8.80
2016,11,19,03,53,8.80
2016,11,19,03,54,8.80
2016,11,19,03,55,8.80
2016,11,19,03,56,8.80
2016,11,19,03,57,8.80
2016,11,19,03,58,8.80
2016,11,19,03,59,8.80
2016,11,19,04,00,8.80
2016,11,19,04,01,8.80
2016,11,19,04,02,8.80
2016,11,19,04,03,8.90
2016,11,19,04,04,8.90
2016,11,19,04,05,8.90
2016,11,19,04,06,8.90
2016,11,19,04,07,9.00
2016,11,19,04,08,9.00
2016,11,19,04,09,9.00
2016,11,19,04,10,9.00
2016,11,19,04,11,9.00
2016,11,19,04,12,9.00
2016,11,19,04,13,9.00
2016,11,19,04,14,9.10
2016,11,19,04,15,9.00
2016,11,19,04,16,9.10
2016,11,19,04,17,9.10
2016,11,19,04,18,9.10
2016,11,19,04,19,9.20
2016,11,19,04,20,9.20
2016,11,19,04,21,9.20
2016,11,19,04,22,9.20
2016,11,19,04,23,9.20
2016,11,19,04,24,9.20
2016,11,19,04,25,9.20
2016,11,19,04,26,9.20
2016,11,19,04,27,9.20
2016,11,19,04,28,9.20
2016,11,19,04,29,9.20
2016,11,19,04,30,9.20
2016,11,19,04,31,9.20
2016,11,19,04,32,9.20
2016,11,19,04,33,9.20
2016,11,19,04,34,9.20
2016,11,19,04,35,9.30
2016,11,19,04,36,9.30
2016,11,19,04,37,9.30
2016,11,19,04,38,9.30
2016,11,19,04,39,9.30
2016,11,19,04,40,9.30
2016,11,19,04,41,9.30
2016,11,19,04,42,9.30
2016,11,19,04,43,9.30
2016,11,19,04,44,9.30
2016,11,19,04,45,9.30
2016,11,19,04,46,9.30
2016,11,19,04,47,9.30
2016,11,19,04,48,9.30
2016,11,19,04,49,9.30
2016,11,19,04,50,9.30
2016,11,19,04,51,9.20
2016,11,19,04,52,9.20
2016,11,19,04,53,9.20
2016,11,19,04,54,9.20
2016,11,19,04,55,9.20
2016,11,19,04,56,9.20
2016,11,19,04,57,9.20
2016,11,19,04,58,9.20
2016,11,19,04,59,9.20
2016,11,19,05,00,9.20
2016,11,19,05,01,9.20
2016,11,19,05,02,9.20
2016,11,19,05,03,9.20
2016,11,19,05,04,9.10
2016,11,19,05,05,9.10
2016,11,19,05,06,9.10
2016,11,19,05,07,9.10
2016,11,19,05,08,9.10
2016,11,19,05,09,9.10
2016,11,19,05,10,9.10
2016,11,19,05,11,9.10
2016,11,19,05,12,9.10
2016,11,19,05,13,9.10
2016,11,19,05,14,9.10
2016,11,19,05,15,9.10
2016,11,19,05,16,9.10
2016,11,19,05,17,9.10
2016,11,19,05,18,9.10
2016,11,19,05,19,9.10
2016,11,19,05,20,9.10
2016,11,19,05,21,9.00
2016,11,19,05,22,9.00
2016,11,19,05,23,9.00
2016,11,19,05,24,9.00
2016,11,19,05,25,9.00
2016,11,19,05,26,8.90
2016,11,19,05,27,8.90
2016,11,19,05,28,8.90
2016,11,19,05,29,8.90
2016,11,19,05,30,8.90
2016,11,19,05,31,8.90
2016,11,19,05,32,8.90
2016,11,19,05,33,8.90
2016,11,19,05,34,8.90
2016,11,19,05,35,8.90
2016,11,19,05,36,8.90
2016,11,19,05,37,8.90
2016,11,19,05,38,8.90
2016,11,19,05,39,8.90
2016,11,19,05,40,8.90
2016,11,19,05,41,8.90
2016,11,19,08,30,8.50
2016,11,19,08,31,8.50
2016,11,19,08,32,8.50
2016,11,19,08,33,8.50
2016,11,19,08,34,8.50
2016,11,19,08,35,8.60
2016,11,19,08,36,8.60
2016,11,19,08,37,8.60
2016,11,19,08,38,8.60
2016,11,19,08,39,8.60
2016,11,19,08,40,8.60
2016,11,19,08,41,8.60
2016,11,19,08,42,8.60
2016,11,19,08,43,8.60
2016,11,19,08,44,8.60
2016,11,19,08,45,8.60
2016,11,19,08,46,8.60
2016,11,19,08,47,8.70
2016,11,19,08,48,8.70
2016,11,19,08,49,8.70
2016,11,19,08,50,8.70
2016,11,19,08,51,8.70
2016,11,19,08,52,8.70
2016,11,19,08,53,8.70
2016,11,19,08,54,8.80
2016,11,19,08,55,8.80
2016,11,19,08,56,8.80
2016,11,19,08,57,8.90
2016,11,19,08,58,8.90
2016,11,19,08,59,8.90
2016,11,19,09,00,9.00
2016,11,19,09,01,9.00
2016,11,19,09,02,9.10
2016,11,19,09,03,9.10
2016,11,19,09,04,9.10
2016,11,19,09,05,9.10
2016,11,19,09,06,9.10
2016,11,19,09,07,9.10
2016,11,19,09,08,9.10
2016,11,19,09,09,9.10
2016,11,19,09,10,9.10
2016,11,19,09,11,9.10
2016,11,19,09,12,9.10
2016,11,19,09,13,9.10
2016,11,19,09,14,9.10
2016,11,19,09,15,9.10
2016,11,19,09,16,9.10
2016,11,19,09,17,9.00
2016,11,19,09,18,9.00
2016,11,19,09,19,9.00
2016,11,19,09,20,9.00
2016,11,19,09,21,9.00
2016,11,19,09,22,9.00
2016,11,19,09,23,9.00
2016,11,19,09,24,9.00
2016,11,19,09,25,9.00
2016,11,19,09,26,9.10
2016,11,19,09,27,9.10
2016,11,19,09,28,9.10
2016,11,19,09,29,9.10
2016,11,19,09,30,9.10
2016,11,19,09,31,9.10
2016,11,19,09,32,9.10
2016,11,19,09,33,9.10
2016,11,19,09,34,9.10
2016,11,19,09,35,9.10
2016,11,19,09,36,9.10
2016,11,19,09,37,9.10
2016,11,19,09,38,9.20
2016,11,19,09,39,9.20
2016,11,19,09,40,9.20
2016,11,19,09,41,9.20
2016,11,19,09,42,9.20
2016,11,19,09,43,9.20
2016,11,19,09,44,9.30
2016,11,19,09,45,9.30
2016,11,19,09,46,9.30
2016,11,19,09,47,9.30
2016,11,19,09,48,9.30
2016,11,19,09,49,9.30
2016,11,19,09,50,9.40
2016,11,19,09,51,9.40
2016,11,19,09,52,9.40
2016,11,19,09,53,9.40
2016,11,19,09,54,9.40
2016,11,19,09,55,9.40
2016,11,19,09,56,9.40
2016,11,19,09,57,9.40
2016,11,19,09,58,9.40
2016,11,19,09,59,9.40
2016,11,19,10,00,9.40
2016,11,19,10,01,9.40
2016,11,19,10,02,9.40
2016,11,19,10,03,9.40
2016,11,19,10,04,9.50
2016,11,19,10,05,9.50
2016,11,19,10,06,9.60
2016,11,19,10,07,9.60
2016,11,19,10,08,9.60
2016,11,19,10,09,9.60
2016,11,19,10,10,9.60
2016,11,19,10,11,9.60
2016,11,19,10,12,9.60
2016,11,19,10,13,9.60
2016,11,19,10,14,9.60
2016,11,19,10,15,9.60
2016,11,19,10,16,9.60
2016,11,19,10,17,9.60
2016,11,19,10,18,9.60
2016,11,19,10,19,9.60
2016,11,19,10,20,9.70
2016,11,19,10,21,9.70
2016,11,19,10,22,9.70
2016,11,19,10,23,9.70
2016,11,19,10,24,9.70
2016,11,19,10,25,9.70
2016,11,19,10,26,9.70
2016,11,19,10,27,9.70
2016,11,19,10,28,9.70
2016,11,19,10,29,9.70
2016,11,19,10,30,9.70
2016,11,19,10,31,9.70
2016,11,19,10,32,9.70
2016,11,19,10,33,9.70
2016,11,19,10,34,9.70
2016,11,19,10,35,9.70
2016,11,19,10,36,9.70
2016,11,19,10,37,9.80
2016,11,19,10,38,9.80
2016,11,19,10,39,9.80
2016,11,19,10,40,9.80
2016,11,19,10,41,9.80
2016,11,19,10,42,9.90
2016,11,19,10,43,9.90
2016,11,19,10,44,9.90
2016,11,19,10,45,10.00
2016,11,19,10,46,10.00
2016,11,19,10,47,10.00
2016,11,19,10,48,10.10
2016,11,19,10,49,10.20
2016,11,19,10,50,10.20
2016,11,19,10,51,10.30
2016,11,19,10,52,10.40
2016,11,19,10,53,10.40
2016,11,19,10,54,10.40
2016,11,19,10,55,10.30
2016,11,19,10,56,10.30
2016,11,19,10,57,10.30
2016,11,19,10,58,10.30
2016,11,19,10,59,10.30
2016,11,19,11,00,10.20
2016,11,19,11,01,10.20
2016,11,19,11,02,10.20
2016,11,19,11,03,10.20
2016,11,19,11,04,10.20
2016,11,19,11,05,10.10
2016,11,19,11,06,10.00
2016,11,19,11,07,10.00
2016,11,19,11,08,10.00
2016,11,19,11,09,9.90
2016,11,19,11,10,9.90
2016,11,19,11,11,9.90
2016,11,19,11,12,9.90
2016,11,19,11,13,9.90
2016,11,19,11,14,9.90
2016,11,19,11,15,9.90
2016,11,19,11,16,10.00
2016,11,19,11,17,10.00
2016,11,19,11,18,10.00
2016,11,19,11,19,10.00
2016,11,19,11,20,10.00
2016,11,19,11,21,10.00
2016,11,19,11,22,10.00
2016,11,19,11,23,10.10
2016,11,19,11,24,10.10
2016,11,19,11,25,10.10
2016,11,19,11,26,10.10
2016,11,19,11,27,10.10
2016,11,19,11,28,10.10
2016,11,19,11,29,10.10
2016,11,19,11,30,10.10
2016,11,19,11,31,10.10
2016,11,19,11,32,10.00
2016,11,19,11,33,10.00
2016,11,19,11,34,10.00
2016,11,19,11,35,10.00
2016,11,19,11,36,10.10
2016,11,19,11,37,10.10
2016,11,19,11,38,10.10
2016,11,19,11,39,10.10
2016,11,19,11,40,10.10
2016,11,19,11,41,10.20
2016,11,19,11,42,10.20
2016,11,19,11,43,10.20
2016,11,19,11,44,10.30
2016,11,19,11,45,10.30
2016,11,19,11,46,10.30
2016,11,19,11,47,10.40
2016,11,19,11,48,10.40
2016,11,19,11,49,10.40
2016,11,19,11,50,10.50
2016,11,19,11,51,10.50
2016,11,19,11,52,10.60
2016,11,19,11,53,10.50
2016,11,19,11,54,10.50
2016,11,19,11,55,10.50
2016,11,19,11,56,10.50
2016,11,19,11,57,10.50
2016,11,19,11,58,10.50
2016,11,19,11,59,10.50
2016,11,19,12,00,10.40
2016,11,19,12,01,10.40
2016,11,19,12,02,10.40
2016,11,19,12,03,10.40
2016,11,19,12,04,10.40
2016,11,19,12,05,10.30
2016,11,19,12,06,10.30
2016,11,19,12,07,10.30
2016,11,19,12,08,10.30
2016,11,19,12,09,10.30
2016,11,19,12,10,10.30
2016,11,19,12,11,10.30
2016,11,19,12,12,10.30
2016,11,19,12,13,10.30
2016,11,19,12,14,10.30
2016,11,19,12,15,10.30
2016,11,19,12,16,10.30
2016,11,19,12,17,10.30
2016,11,19,12,18,10.30
2016,11,19,12,19,10.30
2016,11,19,12,20,10.30
2016,11,19,12,21,10.20
2016,11,19,12,22,10.20
2016,11,19,12,23,10.20
2016,11,19,12,24,10.20
2016,11,19,12,25,10.30
2016,11,19,12,26,10.30
2016,11,19,12,27,10.30
2016,11,19,12,28,10.30
2016,11,19,12,29,10.30
2016,11,19,12,30,10.30
2016,11,19,12,31,10.30
2016,11,19,12,32,10.30
2016,11,19,12,33,10.30
2016,11,19,12,34,10.30
2016,11,19,12,35,10.30
2016,11,19,12,36,10.30
2016,11,19,12,37,10.30
2016,11,19,12,38,10.30
2016,11,19,12,39,10.30
2016,11,19,12,40,10.30
2016,11,19,12,41,10.30
2016,11,19,12,42,10.30
2016,11,19,12,43,10.30
2016,11,19,12,44,10.30
2016,11,19,12,45,10.40
2016,11,19,12,46,10.40
2016,11,19,12,47,10.40
2016,11,19,12,48,10.40
2016,11,19,12,49,10.40
2016,11,19,12,50,10.40
2016,11,19,12,51,10.40
2016,11,19,12,52,10.40
2016,11,19,12,53,10.40
2016,11,19,12,54,10.40
2016,11,19,12,55,10.40
2016,11,19,12,56,10.40
2016,11,19,12,57,10.40
2016,11,19,12,58,10.40
2016,11,19,12,59,10.40
2016,11,19,13,00,10.40
2016,11,19,13,01,10.30
2016,11,19,13,02,10.30
2016,11,19,13,03,10.30
2016,11,19,13,04,10.30
2016,11,19,13,05,10.30
2016,11,19,13,06,10.30
2016,11,19,13,07,10.20
2016,11,19,13,08,10.20
2016,11,19,13,09,10.20
2016,11,19,13,10,10.20
2016,11,19,13,11,10.20
2016,11,19,13,12,10.20
2016,11,19,13,13,10.20
2016,11,19,13,14,10.10
2016,11,19,13,15,10.10
2016,11,19,13,16,10.10
2016,11,19,13,17,10.10
2016,11,19,13,18,10.10
2016,11,19,13,19,10.10
2016,11,19,13,20,10.10
2016,11,19,13,21,10.10
2016,11,19,13,22,10.10
2016,11,19,13,23,10.10
2016,11,19,13,24,10.10
2016,11,19,13,25,10.10
2016,11,19,13,26,10.10
2016,11,19,13,27,10.10
2016,11,19,13,28,10.10
2016,11,19,13,29,10.10
2016,11,19,13,30,10.10
2016,11,19,13,31,10.10
2016,11,19,13,32,10.10
2016,11,19,13,33,10.10
2016,11,19,13,34,10.10
2016,11,19,13,35,10.10
2016,11,19,13,36,10.10
2016,11,19,13,37,10.10
2016,11,19,13,38,10.00
2016,11,19,13,39,10.00
2016,11,19,13,40,10.00
2016,11,19,13,41,10.00
2016,11,19,13,42,10.00
2016,11,19,13,43,10.00
2016,11,19,13,44,9.90
2016,11,19,13,45,9.90
2016,11,19,13,46,9.90
2016,11,19,13,47,9.90
2016,11,19,13,48,9.90
2016,11,19,13,49,9.90
2016,11,19,13,50,9.90
2016,11,19,13,51,9.90
2016,11,19,13,52,9.90
2016,11,19,13,53,9.90
2016,11,19,13,54,9.90
2016,11,19,13,55,9.90
2016,11,19,13,56,9.90
2016,11,19,13,57,9.90
2016,11,19,13,58,9.90
2016,11,19,13,59,9.90
2016,11,19,14,00,9.90
2016,11,19,14,01,9.90
2016,11,19,14,02,9.90
2016,11,19,14,03,10.00
2016,11,19,14,04,10.00
2016,11,19,14,05,10.00
2016,11,19,14,06,10.00
2016,11,19,14,07,10.00
2016,11,19,14,08,10.00
2016,11,19,14,09,10.10
2016,11,19,14,10,10.10
2016,11,19,14,11,10.10
2016,11,19,14,12,10.10
2016,11,19,14,13,10.10
2016,11,19,14,14,10.10
2016,11,19,14,15,10.20
2016,11,19,14,16,10.20
2016,11,19,14,17,10.20
2016,11,19,14,18,10.20
2016,11,19,14,19,10.20
2016,11,19,14,20,10.20
2016,11,19,14,21,10.20
2016,11,19,14,22,10.20
2016,11,19,14,23,10.20
2016,11,19,14,24,10.20
2016,11,19,14,25,10.20
2016,11,19,14,26,10.20
2016,11,19,14,27,10.20
2016,11,19,14,28,10.20
2016,11,19,14,29,10.10
2016,11,19,14,30,10.10
2016,11,19,14,31,10.10
2016,11,19,14,32,10.10
2016,11,19,14,33,10.10
2016,11,19,14,34,10.10
2016,11,19,14,35,10.10
2016,11,19,14,36,10.00
2016,11,19,14,37,10.00
2016,11,19,14,38,10.00
2016,11,19,14,39,10.00
2016,11,19,14,40,10.00
2016,11,19,14,41,10.00
2016,11,19,14,42,10.10
2016,11,19,14,43,10.10
2016,11,19,14,44,10.10
2016,11,19,14,45,10.10
2016,11,19,14,46,10.10
2016,11,19,14,47,10.10
2016,11,19,14,48,10.10
2016,11,19,14,49,10.10
2016,11,19,14,50,10.10
2016,11,19,14,51,10.10
2016,11,19,14,52,10.10
2016,11,19,14,53,10.10
2016,11,19,14,54,10.10
2016,11,19,14,55,10.10
2016,11,19,14,56,10.10
2016,11,19,14,57,10.10
2016,11,19,14,58,10.20
2016,11,19,14,59,10.20
2016,11,19,15,00,10.20
2016,11,19,15,01,10.20
2016,11,19,15,02,10.20
2016,11,19,15,03,10.20
2016,11,19,15,04,10.20
2016,11,19,15,05,10.20
2016,11,19,15,06,10.20
2016,11,19,15,07,10.20
2016,11,19,15,08,10.20
2016,11,19,15,09,10.20
2016,11,19,15,10,10.20
2016,11,19,15,11,10.20
2016,11,19,15,12,10.20
2016,11,19,15,13,10.20
2016,11,19,15,14,10.20
2016,11,19,15,15,10.20
2016,11,19,15,16,10.10
2016,11,19,15,17,10.10
2016,11,19,15,18,10.10
2016,11,19,15,19,10.10
2016,11,19,15,20,10.10
2016,11,19,15,21,10.10
2016,11,19,15,22,10.10
2016,11,19,15,23,10.10
2016,11,19,15,24,10.10
2016,11,19,15,25,10.10
2016,11,19,15,26,10.10
2016,11,19,15,27,10.10
2016,11,19,15,28,10.10
2016,11,19,15,29,10.10
2016,11,19,15,30,10.10
2016,11,19,15,31,10.10
2016,11,19,15,32,10.10
2016,11,19,15,33,10.10
2016,11,19,15,34,10.00
2016,11,19,15,35,10.00
2016,11,19,15,36,10.00
2016,11,19,15,37,10.00
2016,11,19,15,38,10.00
2016,11,19,15,39,10.00
2016,11,19,15,40,10.00
2016,11,19,15,41,10.00
2016,11,19,15,42,10.00
2016,11,19,15,43,9.90
2016,11,19,15,44,9.90
2016,11,19,15,45,9.90
2016,11,19,15,46,9.90
2016,11,19,15,47,9.90
2016,11,19,15,48,9.90
2016,11,19,15,49,9.90
2016,11,19,15,50,9.90
2016,11,19,15,51,9.90
2016,11,19,15,52,9.90
2016,11,19,15,53,9.90
2016,11,19,15,54,9.90
2016,11,19,15,55,9.90
2016,11,19,15,56,9.90
2016,11,19,15,57,9.90
2016,11,19,15,58,9.90
2016,11,19,15,59,9.90
2016,11,19,16,00,9.90
2016,11,19,16,01,9.90
2016,11,19,16,02,9.90
2016,11,19,16,03,9.90
2016,11,19,16,04,9.90
2016,11,19,16,05,9.90
2016,11,19,16,06,9.90
2016,11,19,16,07,9.90
2016,11,19,16,08,9.80
2016,11,19,16,09,9.80
2016,11,19,16,10,9.80
2016,11,19,16,11,9.80
2016,11,19,16,12,9.80
2016,11,19,16,13,9.80
2016,11,19,16,14,9.80
2016,11,19,16,15,9.80
2016,11,19,16,16,9.80
2016,11,19,16,17,9.70
2016,11,19,16,18,9.70
2016,11,19,16,19,9.70
2016,11,19,16,20,9.70
2016,11,19,16,21,9.70
2016,11,19,16,22,9.70
2016,11,19,16,23,9.70
2016,11,19,16,24,9.70
2016,11,19,16,25,9.70
2016,11,19,16,26,9.70
2016,11,19,16,27,9.70
2016,11,19,16,28,9.70
2016,11,19,16,29,9.70
2016,11,19,16,30,9.70
2016,11,19,16,31,9.60
2016,11,19,16,32,9.60
2016,11,19,16,33,9.60
2016,11,19,16,34,9.60
2016,11,19,16,35,9.60
2016,11,19,16,36,9.60
2016,11,19,16,37,9.60
2016,11,19,16,38,9.60
2016,11,19,16,39,9.60
2016,11,19,16,40,9.60
2016,11,19,16,41,9.50
2016,11,19,16,42,9.50
2016,11,19,16,43,9.50
2016,11,19,16,44,9.40
2016,11,19,16,45,9.40
2016,11,19,16,46,9.40
2016,11,19,16,47,9.40
2016,11,19,16,48,9.40
2016,11,19,16,49,9.40
2016,11,19,16,50,9.40
2016,11,19,16,51,9.40
2016,11,19,16,52,9.30
2016,11,19,16,53,9.30
2016,11,19,16,54,9.30
2016,11,19,16,55,9.30
2016,11,19,16,56,9.30
2016,11,19,16,57,9.30
2016,11,19,16,58,9.30
2016,11,19,16,59,9.30
2016,11,19,17,00,9.30
2016,11,19,17,01,9.30
2016,11,19,17,02,9.30
2016,11,19,17,03,9.40
2016,11,19,17,04,9.40
2016,11,19,17,05,9.40
2016,11,19,17,06,9.40
2016,11,19,17,07,9.40
2016,11,19,17,08,9.40
2016,11,19,17,09,9.40
2016,11,19,17,10,9.30
2016,11,19,17,11,9.30
2016,11,19,17,12,9.30
2016,11,19,17,13,9.30
2016,11,19,17,14,9.30
2016,11,19,17,15,9.30
2016,11,19,17,16,9.20
2016,11,19,17,17,9.20
2016,11,19,17,18,9.10
2016,11,19,17,19,9.10
2016,11,19,17,20,9.10
2016,11,19,17,21,9.00
2016,11,19,17,22,9.00
2016,11,19,17,23,8.90
2016,11,19,17,24,8.90
2016,11,19,17,25,8.90
2016,11,19,17,26,8.90
2016,11,19,17,27,8.80
2016,11,19,17,28,8.80
2016,11,19,17,29,8.80
2016,11,19,17,30,8.80
2016,11,19,17,31,8.80
2016,11,19,17,32,8.80
2016,11,19,17,33,8.70
2016,11,19,17,34,8.70
2016,11,19,17,35,8.70
2016,11,19,17,36,8.70
2016,11,19,17,37,8.70
2016,11,19,17,38,8.70
2016,11,19,17,39,8.70
2016,11,19,17,40,8.70
2016,11,19,17,41,8.70
2016,11,19,17,42,8.70
2016,11,19,17,43,8.70
2016,11,19,17,44,8.70
2016,11,19,17,45,8.70
2016,11,19,17,46,8.70
2016,11,19,17,47,8.70
2016,11,19,17,48,8.70
2016,11,19,17,49,8.70
2016,11,19,17,50,8.70
2016,11,19,17,51,8.70
2016,11,19,17,52,8.70
2016,11,19,17,53,8.70
2016,11,19,17,54,8.80
2016,11,19,17,55,8.80
2016,11,19,17,56,8.80
2016,11,19,17,57,8.90
2016,11,19,17,58,8.90
2016,11,19,17,59,8.90
2016,11,19,18,00,8.90
2016,11,19,18,01,8.90
2016,11,19,18,02,8.90
2016,11,19,18,03,8.90
2016,11,19,18,04,9.00
2016,11,19,18,05,9.00
2016,11,19,18,06,9.00
2016,11,19,18,07,9.10
2016,11,19,18,08,9.10
2016,11,19,18,09,9.20
2016,11,19,18,10,9.20
2016,11,19,18,11,9.20
2016,11,19,18,12,9.30
2016,11,19,18,13,9.30
2016,11,19,18,14,9.30
2016,11,19,18,15,9.30
2016,11,19,18,16,9.30
2016,11,19,18,17,9.30
2016,11,19,18,18,9.40
2016,11,19,18,19,9.40
2016,11,19,18,20,9.40
2016,11,19,18,21,9.40
2016,11,19,18,22,9.40
2016,11,19,18,23,9.40
2016,11,19,18,24,9.40
2016,11,19,18,25,9.50
2016,11,19,18,26,9.50
2016,11,19,18,27,9.50
2016,11,19,18,28,9.50
2016,11,19,18,29,9.50
2016,11,19,18,30,9.50
2016,11,19,18,31,9.50
2016,11,19,18,32,9.50
2016,11,19,18,33,9.50
2016,11,19,18,34,9.50
2016,11,19,18,35,9.50
2016,11,19,18,36,9.50
2016,11,19,18,37,9.50
2016,11,19,18,38,9.50
2016,11,19,18,39,9.50
2016,11,19,18,40,9.50
2016,11,19,18,41,9.50
2016,11,19,18,42,9.50
2016,11,19,18,43,9.50
2016,11,19,18,44,9.50
2016,11,19,18,45,9.60
2016,11,19,18,46,9.60
2016,11,19,18,47,9.60
2016,11,19,18,48,9.60
2016,11,19,18,49,9.60
2016,11,19,18,50,9.60
2016,11,19,18,51,9.60
2016,11,19,18,52,9.60
2016,11,19,18,53,9.60
2016,11,19,18,54,9.60
2016,11,19,18,55,9.60
2016,11,19,18,56,9.60
2016,11,19,18,57,9.60
2016,11,19,18,58,9.60
2016,11,19,18,59,9.60
2016,11,19,19,00,9.60
2016,11,19,19,01,9.60
2016,11,19,19,02,9.60
2016,11,19,19,03,9.60
2016,11,19,19,04,9.60
2016,11,19,19,05,9.60
2016,11,19,19,06,9.60
2016,11,19,19,07,9.60
2016,11,19,19,08,9.60
2016,11,19,19,09,9.60
2016,11,19,19,10,9.60
2016,11,19,19,11,9.60
2016,11,19,19,12,9.60
2016,11,19,19,13,9.60
2016,11,19,19,14,9.60
2016,11,19,19,15,9.60
2016,11,19,19,16,9.50
2016,11,19,19,17,9.50
2016,11,19,19,18,9.50
2016,11,19,19,19,9.50
2016,11,19,19,20,9.40
2016,11,19,19,21,9.40
2016,11,19,19,22,9.40
2016,11,19,19,23,9.40
2016,11,19,19,24,9.40
2016,11,19,19,25,9.40
2016,11,19,19,26,9.40
2016,11,19,19,27,9.40
2016,11,19,19,28,9.40
2016,11,19,19,29,9.40
2016,11,19,19,30,9.40
2016,11,19,19,31,9.40
2016,11,19,19,32,9.40
2016,11,19,19,33,9.40
2016,11,19,19,34,9.40
2016,11,19,19,35,9.40
2016,11,19,19,36,9.40
2016,11,19,19,37,9.40
2016,11,19,19,38,9.30
2016,11,19,19,39,9.30
2016,11,19,19,40,9.30
2016,11,19,19,41,9.30
2016,11,19,19,42,9.30
2016,11,19,19,43,9.30
2016,11,19,19,44,9.30
2016,11,19,19,45,9.20
2016,11,19,19,46,9.20
2016,11,19,19,47,9.20
2016,11,19,19,48,9.10
2016,11,19,19,49,9.10
2016,11,19,19,50,9.00
2016,11,19,19,51,9.00
2016,11,19,19,52,8.90
2016,11,19,19,53,8.90
2016,11,19,19,54,8.90
2016,11,19,19,55,8.90
2016,11,19,19,56,8.80
2016,11,19,19,57,8.80
2016,11,19,19,58,8.80
2016,11,19,19,59,8.80
2016,11,19,20,00,8.80
2016,11,19,20,01,8.80
2016,11,19,20,02,8.80
2016,11,19,20,03,8.80
2016,11,19,20,04,8.80
2016,11,19,20,05,8.70
2016,11,19,20,06,8.70
2016,11,19,20,07,8.70
2016,11,19,20,08,8.70
2016,11,19,20,09,8.70
2016,11,19,20,10,8.60
2016,11,19,20,11,8.60
2016,11,19,20,12,8.60
2016,11,19,20,13,8.60
2016,11,19,20,14,8.60
2016,11,19,20,15,8.60
2016,11,19,20,16,8.60
2016,11,19,20,17,8.60
2016,11,19,20,18,8.60
2016,11,19,20,19,8.60
2016,11,19,20,20,8.60
2016,11,19,20,21,8.60
2016,11,19,20,22,8.60
2016,11,19,20,23,8.60
2016,11,19,20,24,8.60
2016,11,19,20,25,8.60
2016,11,19,20,26,8.50
2016,11,19,20,27,8.50
2016,11,19,20,28,8.50
2016,11,19,20,29,8.50
2016,11,19,20,30,8.50
2016,11,19,20,31,8.50
2016,11,19,20,32,8.50
2016,11,19,20,33,8.50
2016,11,19,20,34,8.50
2016,11,19,20,35,8.50
2016,11,19,20,36,8.50
2016,11,19,20,37,8.50
2016,11,19,20,38,8.50
2016,11,19,20,39,8.50
2016,11,19,20,40,8.50
2016,11,19,20,41,8.50
2016,11,19,20,42,8.50